Regional Weather Roundup
Issued by NWS

Home | Current Version | Previous Version | Graphics & Text | Print | Product List | Glossary On
Versions: 1 2 3 4 5 6 7 8 9 10 11 12 13 14 15 16 17 18 19 20 21 22 23 24 25 26 27 28
000
ASUS45 KBOI 280610
RWRID

IDAHO REGIONAL WEATHER ROUNDUP
NATIONAL WEATHER SERVICE BOISE ID
1200 AM MDT THU JUL 28 2016

NOTE: "FAIR" INDICATES FEW OR NO CLOUDS BELOW 12000 FEET
WITH NO SIGNIFICANT WEATHER AND/OR OBSTRUCTIONS TO VISIBILITY

IDZ012-014-280700-
SOUTHWEST IDAHO


CITY           SKY/WX    TMP DP  RH WIND       PRES   REMARKS
BOISE          CLEAR     80  46  30 SE3       29.96R
CALDWELL       CLEAR     77  48  35 W3        29.95R
MOUNTAIN HOME  CLEAR     80  43  26 NW9       29.96S
$$

IDZ016-017-280700-
SOUTHCENTRAL IDAHO


CITY           SKY/WX    TMP DP  RH WIND       PRES   REMARKS
BURLEY         CLEAR     67  52  58 SW8       30.03S
JEROME         CLEAR     72  46  39 CALM      30.03S
TWIN FALLS     CLEAR     78  38  23 S12       30.04S
$$

IDZ019>023-280700-
SOUTHEAST IDAHO


CITY           SKY/WX    TMP DP  RH WIND       PRES   REMARKS
IDAHO FALLS    CLEAR     64  44  48 CALM      30.07R
POCATELLO      CLEAR     71  33  24 CALM      30.06S
REXBURG        CLEAR     72  41  32 E5        30.08S
$$

IDZ006-010-011-018-031-032-280700-
CENTRAL IDAHO MOUNTAINS


CITY           SKY/WX    TMP DP  RH WIND       PRES   REMARKS
MCCALL         CLEAR     70  45  40 N6        30.18S
HAILEY         CLEAR     70  39  32 NW5       30.16R
STANLEY          N/A     54  34  46 SE3       30.29R
SALMON         CLEAR     70  41  35 SE5       30.08S
CHALLIS        CLEAR     72  34  24 NW8       30.15R
$$

IDZ002-004-006-007-026-280700-
NORTHERN IDAHO


CITY           SKY/WX    TMP DP  RH WIND       PRES   REMARKS
LEWISTON       CLEAR     80  50  34 S3        29.98R
LOWELL           N/A     68  59  73 CALM      30.02R
COEUR D`ALENE  CLEAR     72  57  60 NE10      30.03R
MULLAN PASS    CLEAR     65  43  44 NW5       30.28S
$$




USA.gov is the U.S. government's official web portal to all federal, state and local government web resources and services.